Temp
-4 -4 -4 -4 -4 -4 -4 -4 -4 -4 -5 -5 -5 -4 -5 -5 -4 -4 -4 -5 -5 -5 -5 -6 -6 -6 -6 -6 -6 -6 -5 -6 -6 -5 -6 -6 -6 -6 -6 -6 -6 -6 -6
-3 -3 -4 -4 -4 -4 -4 -4 -4 -4 -5 -5 -5 -5 -5 -4 -4 -4 -5 -5 -5 -5 -5 -5 -6 -6 -6 -6 -6 -6 -5 -6 -5 -5 -6 -6 -6 -6 -6 -6 -6 -6 -6
-3 -4 -4 -4 -4 -4 -4 -4 -5 -5 -5 -5 -5 -5 -5 -5 -5 -5 -5 -5 -5 -5 -5 -5 -6 -5 -5 -6 -6 -6 -5 -5 -5 -6 -5 -5 -6 -6 -6 -6 -6 -6 -6
-4 -4 -4 -4 -4 -4 -4 -4 -4 -5 -5 -5 -5 -5 -5 -5 -5 -5 -5 -5 -5 -5 -5 -6 -6 -5 -5 -6 -5 -6 -5 -5 -5 -5 -5 -5 -5 -5 -6 -6 -5 -6 -6
-4 -4 -4 -4 -4 -5 -5 -5 -4 -5 -4 -5 -5 -5 -5 -5 -5 -5 -5 -5 -5 -5 -5 -5 -5 -5 -5 -5 -6 -5 -5 -5 -5 -5 -5 -5 -5 -5 -5 -6 -5 -6 -6
-4 -4 -4 -4 -5 -5 -5 -4 -5 -5 -4 -4 -5 -5 -5 -5 -5 -5 -5 -5 -5 -5 -5 -5 -5 -5 -5 -5 -5 -5 -5 -4 -4 -4 -5 -5 -5 -5 -6 -6 -6 -5 -6
-4 -5 -5 -5 -5 -5 -5 -5 -4 -4 -5 -4 -4 -5 -5 -5 -5 -5 -5 -5 -5 -5 -5 -5 -5 -5 -5 -4 -4 -5 -5 -4 -4 -4 -5 -5 -5 -5 -6 -6 -6 -6 -6
-4 -5 -5 -5 -5 -5 -5 -5 -5 -4 -5 -5 -4 -4 -4 -5 -5 -5 -5 -5 -5 -5 -5 -5 -5 -5 -5 -5 -5 -4 -4 -5 -5 -5 -5 -5 -5 -6 -6 -6 -6 -6 -6
-5 -5 -5 -5 -5 -5 -5 -5 -5 -5 -5 -5 -5 -4 -4 -4 -5 -5 -5 -5 -5 -5 -5 -5 -5 -5 -5 -5 -5 -4 -4 -5 -4 -5 -5 -5 -5 -5 -5 -6 -6 -6 -6
-5 -5 -5 -5 -5 -5 -5 -5 -5 -5 -5 -4 -4 -5 -5 -5 -5 -5 -5 -5 -5 -5 -5 -5 -5 -5 -5 -4 -4 -4 -4 -5 -5 -5 -5 -5 -5 -5 -5 -5 -6 -6 -6
-5 -5 -5 -5 -5 -5 -5 -5 -5 -5 -5 -5 -5 -4 -5 -5 -5 -5 -5 -5 -5 -5 -5 -5 -4 -4 -4 -4 -4 -4 -4 -4 -5 -5 -5 -5 -5 -5 -5 -5 -5 -6 -6
-4 -5 -5 -5 -5 -5 -5 -5 -5 -5 -5 -5 -5 -5 -5 -5 -5 -5 -5 -6 -6 -5 -5 -5 -4 -4 -4 -4 -4 -4 -4 -5 -5 -5 -5 -5 -5 -5 -5 -5 -5 -6 -6
-4 -4 -5 -5 -5 -5 -5 -5 -5 -5 -5 -5 -5 -5 -6 -5 -5 -5 -5 -5 -6 -6 -5 -5 -5 -4 -4 -4 -4 -4 -4 -4 -4 -5 -5 -5 -5 -5 -5 -5 -5 -6 -6
-4 -4 -4 -5 -5 -5 -5 -5 -5 -5 -4 -5 -5 -5 -6 -5 -5 -5 -5 -5 -5 -6 -6 -5 -5 -4 -4 -4 -4 -4 -4 -4 -4 -5 -5 -5 -5 -5 -5 -5 -6 -6 -6
-4 -4 -4 -4 -5 -5 -5 -5 -5 -5 -5 -5 -5 -5 -6 -5 -5 -5 -5 -5 -5 -6 -6 -5 -5 -4 -4 -4 -4 -4 -4 -4 -4 -4 -5 -5 -5 -5 -5 -5 -5 -6 -5
-4 -4 -4 -4 -4 -5 -5 -5 -5 -5 -5 -5 -5 -6 -6 -5 -5 -5 -6 -5 -5 -5 -6 -6 -5 -5 -4 -4 -5 -4 -4 -4 -4 -5 -5 -5 -5 -5 -5 -6 -6 -6 -5
-4 -5 -5 -4 -5 -5 -5 -5 -5 -5 -5 -5 -5 -6 -6 -6 -6 -5 -5 -5 -5 -5 -6 -6 -5 -5 -4 -5 -4 -4 -4 -4 -4 -4 -5 -5 -5 -5 -5 -5 -6 -6 -6
-5 -5 -5 -5 -5 -5 -5 -5 -5 -6 -5 -5 -5 -6 -6 -6 -6 -6 -5 -5 -5 -5 -5 -5 -6 -5 -5 -4 -5 -4 -4 -4 -4 -4 -5 -5 -5 -5 -5 -5 -5 -6 -5
-5 -5 -5 -5 -5 -5 -6 -6 -6 -6 -5 -5 -5 -5 -6 -7 -7 -6 -6 -5 -6 -5 -5 -5 -5 -5 -5 -5 -5 -4 -5 -4 -4 -4 -5 -5 -5 -5 -5 -5 -5 -5 -6
-5 -5 -5 -5 -5 -5 -4 -5 -6 -5 -5 -5 -5 -5 -6 -6 -6 -6 -6 -6 -6 -6 -5 -5 -5 -5 -6 -5 -5 -5 -5 -5 -4 -4 -5 -5 -5 -5 -5 -5 -5 -5 -5
-4 -5 -5 -5 -5 -4 -5 -5 -5 -5 -5 -5 -5 -5 -6 -6 -5 -6 -6 -6 -5 -5 -5 -5 -5 -5 -5 -5 -5 -5 -5 -5 -4 -4 -4 -5 -5 -5 -5 -5 -5 -5 -5
-5 -5 -5 -5 -5 -4 -5 -5 -5 -5 -5 -5 -5 -5 -5 -5 -5 -5 -6 -6 -6 -6 -6 -5 -5 -5 -6 -5 -5 -5 -5 -5 -4 -5 -4 -4 -5 -5 -5 -5 -5 -5 -5
-4 -4 -5 -5 -5 -5 -5 -5 -5 -6 -5 -5 -5 -5 -5 -5 -5 -6 -5 -5 -6 -6 -6 -5 -5 -6 -5 -5 -5 -5 -5 -5 -4 -4 -5 -5 -5 -5 -5 -4 -4 -4 -5
-4 -4 -4 -5 -5 -5 -6 -6 -6 -5 -6 -6 -6 -6 -5 -6 -6 -5 -6 -5 -5 -6 -6 -6 -6 -6 -6 -5 -5 -5 -5 -5 -5 -4 -5 -5 -5 -5 -5 -4 -4 -4 -4
-5 -4 -4 -4 -4 -5 -5 -6 -6 -6 -5 -6 -6 -6 -6 -6 -6 -5 -5 -6 -6 -5 -6 -6 -5 -6 -5 -5 -5 -5 -5 -5 -5 -4 -4 -5 -5 -5 -5 -4 -4 -4 -4
-5 -6 -4 -5 -4 -5 -5 -6 -6 -6 -6 -6 -6 -6 -6 -6 -6 -6 -6 -5 -6 -6 -6 -6 -6 -5 -5 -5 -5 -5 -5 -5 -5 -4 -4 -5 -5 -5 -5 -5 -4 -4 -5
Height
5912 5910 5909 5910 5910 5911 5912 5911 5912 5912 5912 5911 5911 5911 5911 5909 5908 5907 5906 5905 5904 5904 5902 5900 5897 5895 5893 5890 5888 5885 5882 5879 5877 5874 5872 5871 5871 5872 5872 5872 5870 5869 5868
5914 5913 5911 5911 5912 5913 5914 5914 5914 5915 5915 5915 5915 5915 5914 5912 5911 5910 5909 5908 5907 5905 5903 5901 5899 5896 5893 5891 5889 5887 5882 5880 5877 5874 5870 5871 5872 5870 5870 5870 5871 5870 5868
5915 5915 5914 5914 5914 5915 5916 5917 5918 5917 5918 5918 5918 5918 5916 5915 5914 5913 5913 5911 5910 5908 5905 5903 5900 5897 5895 5892 5890 5888 5885 5881 5879 5877 5875 5874 5874 5872 5872 5871 5871 5870 5869
5918 5917 5917 5917 5917 5918 5919 5920 5920 5919 5920 5921 5921 5921 5920 5919 5918 5917 5916 5915 5913 5911 5908 5905 5902 5900 5898 5895 5893 5891 5889 5886 5883 5881 5879 5877 5876 5875 5874 5873 5872 5870 5869
5920 5919 5919 5919 5919 5920 5921 5922 5922 5922 5922 5923 5923 5923 5922 5922 5921 5920 5919 5917 5916 5914 5911 5908 5906 5903 5901 5898 5897 5895 5893 5890 5888 5886 5884 5882 5881 5880 5878 5877 5875 5872 5869
5922 5921 5921 5921 5922 5922 5922 5923 5924 5924 5925 5926 5926 5925 5924 5924 5924 5923 5921 5921 5918 5916 5914 5911 5909 5906 5905 5903 5901 5900 5898 5895 5892 5891 5889 5887 5885 5884 5883 5881 5880 5875 5872
5925 5923 5924 5924 5923 5924 5924 5924 5925 5926 5927 5926 5927 5926 5927 5927 5926 5926 5925 5924 5921 5919 5916 5913 5912 5910 5908 5907 5905 5904 5902 5900 5898 5896 5895 5892 5890 5888 5887 5885 5883 5879 5876
5926 5926 5927 5927 5926 5926 5927 5926 5927 5928 5928 5928 5927 5928 5929 5929 5928 5928 5927 5925 5924 5922 5919 5916 5915 5914 5912 5911 5909 5907 5906 5904 5902 5900 5898 5897 5895 5892 5890 5888 5885 5883 5880
5928 5928 5928 5929 5928 5928 5928 5928 5929 5929 5929 5929 5929 5930 5931 5929 5930 5930 5929 5927 5926 5924 5924 5922 5919 5918 5915 5914 5912 5911 5910 5908 5905 5903 5902 5901 5899 5897 5894 5891 5888 5886 5884
5930 5930 5929 5930 5929 5929 5930 5929 5930 5930 5930 5929 5930 5931 5932 5931 5930 5931 5931 5929 5928 5927 5926 5925 5923 5921 5919 5917 5915 5915 5914 5912 5910 5907 5906 5905 5903 5900 5897 5894 5891 5888 5887
5931 5931 5931 5931 5930 5929 5930 5930 5930 5930 5930 5930 5930 5931 5932 5933 5932 5931 5931 5931 5930 5929 5928 5927 5926 5925 5923 5920 5919 5918 5916 5914 5913 5912 5910 5909 5906 5903 5899 5896 5893 5890 5888
5932 5932 5932 5931 5931 5930 5930 5931 5931 5930 5930 5931 5931 5931 5932 5933 5933 5932 5933 5931 5932 5932 5930 5930 5929 5929 5927 5925 5923 5921 5919 5918 5917 5915 5913 5911 5907 5904 5901 5899 5895 5893 5892
5933 5933 5933 5933 5933 5932 5932 5932 5932 5930 5930 5931 5932 5932 5932 5933 5934 5933 5933 5934 5933 5933 5933 5932 5931 5932 5930 5928 5925 5924 5922 5922 5920 5917 5915 5912 5910 5906 5904 5900 5898 5896 5895
5933 5934 5934 5934 5934 5933 5932 5932 5932 5931 5929 5930 5931 5932 5932 5933 5934 5934 5933 5934 5934 5934 5933 5934 5934 5934 5932 5931 5928 5926 5926 5925 5923 5921 5917 5915 5912 5909 5907 5904 5901 5900 5898
5934 5934 5934 5935 5934 5934 5934 5934 5933 5932 5930 5928 5929 5930 5931 5932 5934 5935 5933 5934 5935 5935 5934 5935 5935 5935 5934 5932 5930 5928 5927 5926 5925 5922 5920 5919 5916 5913 5911 5908 5905 5903 5901
5935 5936 5936 5935 5935 5935 5935 5934 5933 5932 5930 5929 5929 5929 5930 5932 5933 5935 5934 5934 5935 5936 5935 5937 5936 5936 5935 5934 5933 5931 5930 5929 5926 5924 5923 5921 5919 5916 5914 5911 5908 5906 5904
5935 5936 5936 5935 5935 5935 5936 5935 5933 5932 5931 5930 5930 5929 5930 5931 5933 5934 5934 5935 5936 5937 5937 5936 5937 5937 5937 5937 5935 5933 5932 5931 5928 5926 5924 5923 5921 5919 5917 5914 5911 5909 5907
5934 5934 5935 5933 5934 5934 5935 5934 5933 5932 5932 5931 5929 5929 5930 5931 5933 5934 5934 5935 5937 5937 5938 5939 5938 5938 5939 5939 5938 5935 5933 5932 5930 5929 5927 5925 5924 5922 5920 5917 5914 5911 5909
5934 5934 5934 5933 5932 5932 5933 5933 5933 5932 5931 5931 5929 5929 5928 5930 5933 5934 5935 5935 5936 5937 5937 5939 5938 5938 5939 5939 5938 5936 5935 5933 5932 5931 5930 5928 5925 5924 5921 5919 5916 5913 5911
5935 5934 5932 5932 5931 5931 5931 5931 5931 5931 5930 5930 5930 5929 5928 5930 5932 5933 5933 5935 5936 5936 5936 5937 5939 5938 5939 5939 5939 5938 5937 5935 5933 5933 5932 5929 5928 5926 5923 5921 5918 5916 5914
5935 5934 5932 5931 5930 5930 5931 5931 5930 5928 5929 5929 5928 5928 5929 5930 5931 5933 5932 5933 5935 5936 5936 5936 5938 5938 5938 5939 5940 5939 5938 5937 5935 5934 5933 5931 5930 5927 5924 5922 5920 5919 5917
5936 5934 5933 5932 5931 5930 5929 5929 5929 5928 5928 5928 5927 5928 5927 5927 5929 5929 5931 5931 5933 5934 5935 5936 5937 5938 5938 5939 5940 5940 5940 5939 5937 5935 5933 5932 5931 5929 5925 5924 5922 5920 5919
5935 5935 5933 5932 5931 5930 5929 5928 5928 5928 5927 5927 5926 5927 5927 5926 5927 5928 5929 5930 5930 5932 5934 5936 5936 5937 5938 5938 5939 5940 5940 5939 5937 5938 5935 5933 5933 5930 5927 5926 5924 5922 5921
5935 5935 5933 5931 5930 5929 5928 5927 5926 5925 5925 5925 5925 5925 5925 5925 5924 5925 5926 5927 5928 5929 5931 5934 5935 5936 5937 5937 5938 5939 5940 5939 5937 5937 5937 5935 5935 5932 5929 5928 5927 5925 5923
5934 5933 5933 5929 5927 5927 5927 5927 5925 5924 5923 5924 5924 5923 5923 5924 5923 5922 5923 5924 5926 5927 5929 5931 5933 5935 5936 5937 5937 5937 5938 5938 5936 5936 5937 5937 5935 5934 5931 5929 5928 5928 5927
5932 5932 5931 5929 5926 5924 5924 5924 5924 5924 5924 5923 5923 5922 5922 5921 5921 5921 5921 5923 5924 5924 5926 5929 5930 5932 5934 5935 5936 5936 5937 5938 5936 5935 5936 5937 5935 5934 5932 5930 5929 5929 5928
Wind_Speed
13 14 13 12 13 10 7 8 9 9 9 9 11 13 14 15 16 17 17 17 18 19 18 17 18 18 18 17 19 19 17 11 12 14 12 10 13 13 10 11 9 12 8
12 11 12 12 11 10 6 5 8 9 8 9 11 13 14 14 15 16 16 17 19 19 19 20 19 20 19 19 18 22 21 14 16 12 7 8 8 12 9 9 8 12 12
10 10 11 11 10 9 7 5 6 8 8 9 11 12 11 13 13 15 15 16 17 19 20 22 22 22 21 21 20 20 24 23 21 19 21 21 12 13 15 11 6 5 6
10 10 10 10 9 9 8 6 5 6 8 9 11 10 11 12 14 13 14 16 17 18 22 23 21 23 23 24 24 24 22 23 24 23 23 22 20 20 17 12 12 8 6
11 11 10 9 9 9 7 6 5 5 8 9 11 10 11 11 11 13 14 15 18 20 21 19 20 25 27 24 25 25 24 24 27 26 26 26 26 25 25 20 20 20 11
10 12 12 9 8 8 6 5 5 5 8 9 10 11 10 10 10 10 12 15 16 20 20 18 18 22 23 26 28 27 27 28 29 28 26 24 22 22 21 21 18 25 27
9 12 11 10 8 6 6 4 5 5 6 9 7 9 9 9 9 9 13 15 14 18 18 15 15 22 24 24 27 28 27 28 28 27 26 25 24 22 20 20 20 22 21
8 10 11 12 10 8 5 4 4 6 5 6 6 6 10 8 8 9 12 12 13 16 19 18 20 21 24 23 26 28 26 25 26 26 26 24 22 21 18 19 19 20 21
11 7 5 6 10 8 7 5 3 4 4 4 4 6 7 7 9 8 11 11 13 13 15 18 16 18 21 23 25 26 23 24 25 25 23 21 20 19 18 18 18 19 20
10 10 6 3 4 3 5 6 4 2 3 3 5 7 7 7 7 8 9 11 10 12 10 9 15 19 20 21 22 22 22 22 23 23 22 20 19 19 18 18 18 19 20
8 8 7 4 6 5 2 6 3 2 2 2 3 4 6 7 9 9 8 9 10 11 11 13 15 16 16 19 18 20 21 21 20 22 22 20 19 18 18 17 17 17 19
8 8 6 5 4 5 3 5 2 5 5 4 2 3 4 5 7 11 6 9 8 10 9 11 14 12 13 15 18 20 21 20 20 21 21 19 20 20 19 18 17 16 18
9 8 7 5 4 3 4 5 2 6 8 6 3 3 2 3 6 9 7 7 7 10 8 9 11 9 11 14 18 18 19 18 19 21 21 19 19 19 19 17 16 16 17
8 8 7 6 6 4 4 5 6 6 6 9 7 5 7 1 4 8 6 6 6 10 10 6 9 8 10 12 15 16 16 18 19 21 21 20 18 18 18 17 15 14 14
7 7 7 6 4 3 3 5 7 9 8 6 5 9 10 2 2 5 4 5 7 7 8 3 7 8 8 10 12 13 14 17 18 19 20 20 20 18 17 16 16 14 14
5 5 5 6 5 4 5 6 7 9 10 10 8 5 9 5 2 3 2 4 4 6 4 5 7 6 7 7 9 9 12 14 15 18 19 19 20 20 18 16 16 16 15
4 3 3 5 8 9 9 9 9 10 8 9 7 6 8 8 3 3 4 1 3 3 1 7 6 6 6 5 7 10 11 12 13 17 16 18 19 18 17 18 17 15 14
4 1 1 6 7 10 10 12 12 12 9 8 7 4 10 10 5 4 3 3 2 3 3 4 7 3 3 3 6 8 10 10 11 13 14 15 16 18 17 19 19 15 12
9 5 2 4 6 7 10 10 13 13 12 6 7 6 8 12 6 5 3 3 4 3 3 3 7 6 3 2 4 5 7 8 8 10 10 13 14 19 18 16 16 14 13
10 11 8 7 5 4 6 9 10 12 12 7 6 5 3 5 2 7 9 6 6 5 4 3 6 7 5 2 3 4 6 6 6 7 7 11 14 17 17 16 15 14 13
11 11 9 7 7 6 6 9 10 11 10 9 8 5 9 11 8 9 9 7 8 7 7 4 5 6 5 3 3 3 4 4 5 6 8 10 13 15 16 16 14 14 11
10 10 10 7 8 9 9 9 9 11 11 8 8 6 8 11 10 10 15 12 11 12 9 8 5 6 6 4 3 2 3 4 4 6 8 10 11 13 15 15 13 13 11
11 11 11 9 8 10 11 10 9 9 11 10 9 7 7 8 9 12 12 15 11 17 13 11 8 7 7 6 5 2 2 4 5 6 4 7 10 11 13 12 12 12 11
13 13 10 9 8 7 11 12 11 11 11 12 11 9 9 9 10 10 12 12 13 14 15 13 10 9 8 6 6 6 2 3 4 5 3 5 8 8 10 9 8 10 10
13 12 12 10 9 7 7 9 11 11 12 13 12 10 11 11 11 11 12 13 13 12 15 16 14 12 9 8 6 6 4 3 4 6 5 4 7 7 9 8 5 7 9
13 17 15 13 12 8 8 5 9 11 11 13 14 13 14 14 13 11 12 12 13 15 19 19 16 15 12 10 7 10 10 5 2 5 6 2 4 5 7 6 5 4 7
Wind_Direction
90 96 98 97 102 99 82 78 64 53 59 58 57 57 59 57 54 53 51 49 45 40 35 27 22 14 15 21 32 29 11 3 5 349 293 275 285 302 298 332 312 302 298
91 91 96 98 102 105 97 68 68 49 42 52 52 58 60 58 55 51 45 39 36 33 32 24 18 24 27 32 36 35 33 52 39 29 352 292 276 325 259 291 304 315 308
92 93 91 91 97 101 91 68 46 57 39 48 55 59 60 62 60 50 44 38 32 32 28 23 27 29 38 35 41 49 52 58 56 51 68 75 63 58 51 44 35 3 337
97 93 89 86 85 86 84 72 60 54 50 51 55 58 54 57 58 53 46 34 34 33 27 32 35 40 41 56 60 53 57 62 66 64 66 66 65 62 65 52 40 47 38
102 96 91 92 92 88 86 80 57 57 65 57 58 58 54 51 55 58 47 34 34 32 30 38 53 46 58 67 64 63 68 71 72 74 71 70 71 69 67 78 64 58 68
103 95 89 86 90 97 94 78 57 49 71 57 56 58 59 53 52 55 44 39 36 33 35 48 53 51 55 69 70 70 70 73 74 73 73 74 71 66 63 66 59 60 66
94 93 86 84 77 87 101 84 46 59 75 81 60 61 49 52 48 48 34 38 39 37 40 48 48 64 71 72 76 75 74 73 74 73 70 66 64 63 63 58 63 60 61
66 83 81 63 56 49 43 64 59 48 49 67 78 57 57 44 49 43 28 36 38 39 49 60 78 68 72 76 76 76 74 74 72 70 68 62 59 60 60 57 55 58 60
71 66 71 58 45 37 42 24 7 53 54 40 63 53 44 55 38 25 28 33 43 39 66 58 67 73 78 75 74 71 71 70 69 67 64 62 57 53 53 53 53 54 54
57 54 41 55 3 351 26 20 355 20 57 39 25 33 57 43 49 31 34 42 46 39 56 68 77 77 77 72 69 68 67 65 66 66 63 61 65 62 58 51 49 53 54
37 43 54 25 358 350 280 336 310 344 347 335 37 62 62 51 48 34 39 46 41 47 66 90 96 84 81 78 76 72 66 64 64 66 64 60 63 64 61 56 50 56 57
27 27 40 43 0 21 349 346 310 313 304 306 335 112 82 63 72 53 31 50 41 47 70 94 86 86 84 82 82 78 71 68 65 62 61 53 58 60 59 57 54 54 58
47 26 31 33 40 26 4 6 332 311 289 301 300 296 103 54 55 75 38 47 61 54 58 92 85 93 85 83 82 78 72 69 67 63 57 51 51 55 56 56 53 50 54
48 43 35 17 19 24 14 16 4 339 301 302 257 283 304 42 51 81 58 37 51 60 65 76 99 100 84 82 85 78 73 67 65 64 59 53 51 54 52 50 51 52 53
26 22 17 10 17 36 23 2 358 355 343 356 306 252 263 249 59 82 79 38 28 45 41 100 110 105 100 91 86 83 81 75 72 66 60 53 49 49 54 51 45 50 52
32 5 343 323 308 298 305 319 330 335 344 342 338 219 216 231 168 128 108 86 42 30 54 123 130 117 96 95 87 86 85 80 73 68 59 55 48 43 43 44 44 44 52
52 43 304 301 301 292 296 304 314 323 329 337 335 219 224 237 225 186 136 132 115 100 17 133 118 124 105 83 96 92 86 86 72 64 55 52 46 41 40 37 41 43 54
331 329 280 293 289 279 284 292 302 313 316 317 339 30 248 230 216 233 204 174 137 162 120 165 134 147 128 106 97 79 78 87 74 59 49 49 44 40 39 34 38 40 58
360 313 341 304 294 278 277 284 297 301 297 300 312 318 246 218 233 256 225 217 189 204 139 210 171 171 167 115 97 86 70 70 67 59 43 39 40 40 40 34 33 40 54
12 357 340 333 311 285 302 292 291 293 287 279 254 271 240 215 233 288 265 245 235 206 205 179 191 189 176 133 117 63 63 62 60 67 54 39 42 40 39 35 32 43 57
4 1 349 318 310 308 307 303 300 299 295 282 259 255 238 241 258 272 283 257 246 232 225 212 224 207 188 206 140 84 54 49 34 47 47 36 40 45 38 33 34 48 58
355 17 12 342 309 289 296 302 299 295 297 288 281 263 248 250 239 271 276 265 253 246 226 231 218 221 218 220 197 108 16 27 63 23 20 35 35 45 40 36 36 43 54
345 348 351 345 324 293 293 295 295 289 297 297 284 282 271 271 252 237 250 265 274 240 228 223 231 225 234 226 262 239 33 23 46 72 13 25 24 44 41 35 50 43 46
328 333 346 349 338 313 294 287 287 283 283 287 287 286 283 282 283 276 245 242 257 250 223 228 224 235 239 241 265 259 291 1 5 21 69 8 26 41 44 37 52 61 51
325 328 336 348 335 316 299 293 290 277 280 289 291 293 291 285 277 276 250 244 247 233 222 233 234 238 242 249 247 270 277 9 343 342 22 4 15 35 43 31 46 59 51
332 318 322 336 338 330 301 288 305 294 286 286 292 295 290 291 286 270 263 245 242 234 225 231 237 242 241 251 246 256 267 282 331 337 340 3 360 39 42 30 40 44 56